IK7IZV Weather Reports


Display with metric or nautical units.
time (UTC)temp
F
wind
direction
speed
MPH
gust
MPH
rain 1hr
in
rain 24hr
in
rain mn
in
humidity
%
barometer
mb
20260506073043 69 184 6.0 13.0 0.00 0.00 0.00 71 1015.6
20260506071538 68 261 5.0 11.0 0.00 0.00 0.00 73 1015.7
20260506061529 65 265 4.0 11.0 0.00 0.00 0.00 79 1015.8
20260506044521 63 237 6.0 10.0 0.00 0.00 0.00 83 1015.4
20260506043021 63 198 5.0 10.0 0.00 0.00 0.00 83 1015.3
20260506041520 63 201 4.0 8.0 0.00 0.00 0.00 83 1015.2
20260506040017 63 220 6.0 9.0 0.00 0.00 0.00 82 1015.2
20260506034514 63 197 4.0 9.0 0.00 0.00 0.00 81 1015.2
20260506033012 64 263 6.0 9.0 0.00 0.00 0.00 80 1015.2
20260506031510 64 194 1.0 4.0 0.00 0.00 0.00 79 1015.1
20260506030008 64 238 1.0 4.0 0.00 0.00 0.00 79 1015.3
20260506024508 64 255 2.0 8.0 0.00 0.00 0.00 79 1015.3
20260506023006 64 190 2.0 6.0 0.00 0.00 0.00 78 1015.3
20260506021505 64 275 3.0 6.0 0.00 0.00 0.00 77 1015.5
20260506020003 64 270 1.0 4.0 0.00 0.00 0.00 77 1015.5
20260506014502 64 264 0.0 2.0 0.00 0.00 0.00 76 1015.6
20260506013001 64 208 0.0 3.0 0.00 0.00 0.00 75 1015.7
20260506011617 64 272 0.0 3.0 0.00 0.00 0.00 75 1015.6
20260506010100 64 201 1.0 4.0 0.00 0.00 0.00 74 1015.6
20260506004557 65 214 0.0 4.0 0.00 0.00 0.00 73 1015.7
20260506003057 65 197 2.0 4.0 0.00 0.00 0.00 72 1015.7
20260506001557 65 202 1.0 3.0 0.00 0.00 0.00 72 1015.7
20260506000054 65 182 0.0 4.0 0.00 0.00 0.00 73 1015.8
20260505234553 65 184 1.0 3.0 0.00 0.00 0.00 72 1015.9
20260505233051 65 208 0.0 0.0 0.00 0.00 0.00 71 1016.0
20260505231605 65 224 2.0 4.0 0.00 0.00 0.00 70 1016.1
20260505231535 65 237 2.0 4.0 0.00 0.00 0.00 70 1016.1
20260505230049 65 267 0.0 4.0 0.00 0.00 0.00 70 1016.2
20260505224551 65 218 0.0 4.0 0.00 0.00 0.00 69 1016.2
20260505223146 65 191 1.0 2.0 0.00 0.00 0.00 68 1016.2
20260505221545 65 203 2.0 4.0 0.00 0.00 0.00 68 1016.4
20260505220045 65 209 1.0 3.0 0.00 0.00 0.00 68 1016.5
20260505214553 64 254 1.0 4.0 0.00 0.00 0.00 68 1016.5
20260505213042 64 281 0.0 4.0 0.00 0.00 0.00 68 1016.6
20260505211540 64 271 0.0 7.0 0.00 0.00 0.00 68 1016.7
20260505210043 65 288 4.0 9.0 0.00 0.00 0.00 67 1016.9
20260505204539 65 282 4.0 9.0 0.00 0.00 0.00 65 1016.9
20260505203054 65 284 4.0 9.0 0.00 0.00 0.00 64 1017.0
20260505201544 66 307 2.0 5.0 0.00 0.00 0.00 63 1017.1
20260505200045 66 267 3.0 7.0 0.00 0.00 0.00 64 1017.0
20260505194538 66 288 3.0 8.0 0.00 0.00 0.00 65 1017.0
20260505193036 66 273 4.0 10.0 0.00 0.00 0.00 67 1017.0
20260505191535 66 177 2.0 6.0 0.00 0.00 0.00 71 1016.9
20260505190036 66 219 3.0 5.0 0.00 0.00 0.00 72 1016.8
20260505184537 66 179 1.0 4.0 0.00 0.00 0.00 72 1016.7
20260505183033 65 193 1.0 4.0 0.00 0.00 0.00 69 1016.6
20260505181538 65 246 1.0 4.0 0.00 0.00 0.00 74 1016.6
20260505180031 65 150 1.0 3.0 0.00 0.00 0.00 77 1016.5
20260505174633 65 157 0.0 0.0 0.00 0.00 0.00 79 1016.5
20260505173029 65 160 2.0 6.0 0.00 0.00 0.00 80 1016.7
20260505171529 65 167 2.0 4.0 0.00 0.00 0.00 76 1016.7
20260505170029 65 99 2.0 7.0 0.00 0.00 0.00 76 1016.8
20260505164528 66 68 4.0 6.0 0.00 0.00 0.00 70 1016.7
20260505163033 65 165 2.0 4.0 0.00 0.00 0.00 70 1016.7
20260505161525 65 94 4.0 6.0 0.00 0.00 0.00 68 1017.0
20260505153022 66 69 3.0 5.0 0.00 0.00 0.00 62 1017.2
20260505151521 67 37 1.0 3.0 0.00 0.00 0.00 61 1017.3
20260505124512 65 37 7.0 10.0 0.00 0.00 0.00 83 1018.3
20260505123012 65 37 6.0 14.0 0.00 0.00 0.00 82 1018.4
20260505121514 65 21 8.0 13.0 0.00 0.00 0.00 81 1018.4
20260505120009 66 16 10.0 16.0 0.00 0.00 0.00 81 1018.4
20260505114509 66 13 6.0 14.0 0.00 0.00 0.00 80 1018.3
20260505113015 67 9 13.0 18.0 0.00 0.00 0.00 77 1018.2
20260505111507 70 4 7.0 14.0 0.00 0.00 0.00 67 1018.2
20260505101600 78 204 7.0 13.0 0.00 0.00 0.00 39 1017.4
20260505094557 73 267 6.0 12.0 0.00 0.00 0.00 57 1017.5
20260505093055 70 157 6.0 11.0 0.00 0.00 0.00 63 1017.6
20260505091555 70 122 4.0 12.0 0.00 0.00 0.00 59 1017.7
20260505090104 70 159 6.0 12.0 0.00 0.00 0.00 56 1017.6
20260505084554 73 140 4.0 10.0 0.00 0.00 0.00 54 1017.4
20260505083056 75 223 5.0 12.0 0.00 0.00 0.00 44 1017.5
20260505081548 75 233 6.0 13.0 0.00 0.00 0.00 43 1017.6
20260505080047 74 229 2.0 13.0 0.00 0.00 0.00 45 1017.7
20260505074543 72 267 9.0 13.0 0.00 0.00 0.00 46 1017.7